AO-07 1 07530U 74089B 16223.88172001 -.00000041 00000-0 15816-4 0 9995 2 07530 101.5806 193.3171 0011699 202.9913 211.4355 12.53622381909748 FO-29 1 24278U 96046B 16223.81711471 -.00000034 00000-0 -54890-6 0 9993 2 24278 98.5836 141.8818 0351361 61.2501 302.3464 13.53069720986909 RS-22 1 27939U 03042A 16224.40897124 .00000206 00000-0 45559-4 0 9999 2 27939 97.8965 13.9780 0014202 126.4686 286.5297 14.66433951687918 AO-73 1 39444U 13066AE 16224.35645174 .00000515 00000-0 71020-4 0 9995 2 39444 97.6764 275.5307 0058416 199.1346 160.7673 14.81124993145744 EO-79 1 40025U 14033R 16224.26577036 .00000520 00000-0 62641-4 0 9993 2 40025 97.9233 129.7005 0011260 240.8154 119.1936 14.88073771116390 XW-2A 1 40903U 15049E 16224.32837199 .00003684 00000-0 10459-3 0 9995 2 40903 97.4450 240.1544 0014061 301.3595 58.6272 15.36774523 50025 XW-2C 1 40906U 15049H 16224.37000320 .00001376 00000-0 79805-4 0 9998 2 40906 97.4542 230.2649 0014916 201.0050 159.0571 15.13735028 49351 LILACSAT-2 1 40908U 15049K 16224.35415538 .00000829 00000-0 50998-4 0 9993 2 40908 97.4607 230.1053 0015896 195.4086 164.6663 15.12632740 49323 UO-11 1 14781U 84021B 16224.16750204 .00000169 00000-0 27224-4 0 9993 2 14781 97.7445 274.4744 0009714 128.9789 231.2292 14.82775426744402 LO-19 1 20442U 90005G 16223.88392139 .00000028 00000-0 26141-4 0 9991 2 20442 098.5445 158.0692 0011608 350.7320 009.3648 14.32825123387128 AO-27 1 22825U 93061C 16224.36265437 .00000016 00000-0 23894-4 0 9996 2 22825 98.7639 180.9645 0008881 149.7325 210.4371 14.29963700193127 IO-26 1 22826U 93061D 16224.39456293 .00000030 00000-0 28919-4 0 9991 2 22826 98.7582 181.1144 0009549 141.5549 218.6315 14.30289231193290 GO-32 1 25397U 98043D 16223.82199326 -.00000005 00000-0 16644-4 0 9995 2 25397 098.5700 167.3554 0001649 137.0785 223.0522 14.23599637939410 NO-44 1 26931U 01043C 16223.94572959 -.00000005 00000-0 29805-4 0 9997 2 26931 067.0510 171.6344 0005951 261.1347 098.9081 14.30418555775901 SO-50 1 27607U 02058C 16223.87337537 .00000187 00000-0 47638-4 0 9992 2 27607 064.5566 353.7576 0062246 204.9476 154.8615 14.75189649733203 CO-55 1 27844U 03031E 16224.26734614 .00000073 00000-0 52689-4 0 9994 2 27844 98.6928 231.7634 0010118 157.0419 203.1212 14.21967533680278 CO-57 1 27848U 03031J 16223.55069924 .00000057 00000-0 45969-4 0 9999 2 27848 98.7025 231.1753 0009818 167.3316 192.8110 14.21591851680066 CO-65 1 32785U 08021C 16223.85455152 .00000443 00000-0 54311-4 0 9994 2 32785 097.5992 255.7868 0014700 113.7376 246.5385 14.87621837448689 PRISM 1 33493U 09002B 16224.35553976 .00000558 00000-0 56758-4 0 9994 2 33493 98.2091 87.0292 0016501 28.5680 331.6455 14.95045391409475 TISAT-1 1 36799U 10035E 16224.25885629 .00000915 00000-0 10109-3 0 9992 2 36799 98.0347 335.4025 0011180 264.0507 95.9435 14.89902873329622 ALMASAT-1 1 38078U 12006B 16223.91394140 .00034136 36532-5 45706-3 0 9996 2 38078 069.4428 237.7318 0373507 022.6858 339.0329 15.05515007237817 DUCHIFAT-1 1 40021U 14033M 16224.37436685 .00000797 00000-0 89874-4 0 9998 2 40021 97.9265 131.0221 0011830 238.5960 121.4100 14.89394510116475 NANOSATCBR1 1 40024U 14033Q 16224.37734135 .00000670 00000-0 77611-4 0 9998 2 40024 97.9239 130.3547 0011098 238.5172 121.4961 14.88792528116445 DTUSAT-2 1 40030U 14033W 16224.19351012 .00000518 00000-0 62999-4 0 9998 2 40030 97.9210 129.0334 0010773 234.0682 125.9535 14.87706879116355 ANTELSAT 1 40034U 14033AA 16224.23778021 .00000323 00000-0 56307-4 0 9990 2 40034 97.8957 111.0844 0058317 208.0358 151.7692 14.73435467115289 MET-2/21 1 22782U 93055A 16223.77299289 .00000005 00000-0 -87244-5 0 9996 2 22782 082.5475 269.9146 0021649 218.8623 278.7795 13.83789754158490 NOAA-15 1 25338U 98030A 16223.96208618 .00000048 00000-0 39116-4 0 9991 2 25338 098.7840 228.2239 0011229 032.8035 327.3839 14.25746218948537 NOAA-18 1 28654U 05018A 16223.96811983 .00000042 00000-0 48263-4 0 9991 2 28654 099.1977 232.3244 0013632 218.2581 141.7624 14.12298400578377 NOAA-19 1 33591U 09005A 16223.85957208 .00000090 00000-0 73684-4 0 9994 2 33591 099.0444 181.0941 0015063 066.6546 293.6208 14.12095809386595 HUBBLE 1 20580U 90037B 16223.86820602 .00000737 00000-0 34909-4 0 9996 2 20580 028.4693 257.6002 0003051 077.6297 265.3343 15.08448836243280 ISS 1 25544U 98067A 16224.31425815 .00003697 00000-0 61222-4 0 9996 2 25544 51.6448 142.9566 0002212 121.4758 28.0804 15.54966908 13568 CO-58 1 28895U 05043F 16223.93942727 .00000255 00000-0 58042-4 0 9996 2 28895 097.8366 035.1339 0017972 048.9097 311.3654 14.63232830574887 AAUSAT2 1 32788U 08021F 16223.85552463 .00001156 00000-0 11542-3 0 9990 2 32788 097.5994 264.9128 0013796 088.8012 271.4788 14.93320458449258 DO-64 1 32789U 08021G 16223.90770258 .00003142 00000-0 23445-3 0 9993 2 32789 097.6025 282.1697 0014525 078.8277 281.4580 15.03492313450122 CO-66 1 32791U 08021J 16223.79357040 .00000705 00000-0 78745-4 0 9999 2 32791 097.5996 259.0761 0015175 103.6492 256.6417 14.89842746448845 RS-30 1 32953U 08025A 16224.33565797 .00000011 00000-0 11042-4 0 9991 2 32953 82.5003 72.3560 0018139 241.3742 118.5513 12.43070697372926 JUGNU 1 37839U 11058B 16223.96359874 .00000336 00000-0 37486-4 0 9994 2 37839 019.9603 171.4549 0018905 004.5868 057.3042 14.12548508249672 SRMSAT 1 37841U 11058D 16224.15461959 .00000315 00000-0 28001-4 0 9997 2 37841 19.9707 205.6099 0011632 275.7891 170.2184 14.10546834249454 AO-71 1 37854U 11061E 16224.17984060 .00001167 00000-0 72657-4 0 9992 2 37854 101.7004 294.5375 0172082 271.4752 86.6753 15.02446592260354 HRBE 1 37855U 11061F 16223.83865431 .00001131 00000-0 69506-4 0 9995 2 37855 101.7135 292.0566 0185413 277.0884 80.9275 15.01375406260197 HORYU-2 1 38340U 12025D 16223.91442191 .00000433 00000-0 72311-4 0 9991 2 38340 098.3588 211.2371 0011254 192.0858 168.0082 14.75080429217133 RS-40 1 38735U 12041C 16224.29887074 .00000018 00000-0 62768-4 0 9996 2 38735 82.4784 157.4139 0017024 348.0262 12.0410 12.42572450183204 BEESAT-3 1 39134U 13015E 16223.93096485 .00003144 00000-0 17158-3 0 9995 2 39134 064.8713 146.7070 0012201 297.0645 062.9235 15.16223917182033 BEESAT-2 1 39136U 13015G 16223.95809271 .00002266 00000-0 13509-3 0 9994 2 39136 064.8718 153.3009 0011527 303.4596 056.5426 15.13836937181908 ZACUBE-1 1 39417U 13066B 16224.36389289 .00000397 00000-0 57150-4 0 9994 2 39417 97.6752 274.8661 0059116 201.2816 158.5937 14.80445415146935 TRITON-1 1 39427U 13066M 16224.12449524 .00000290 00000-0 55201-4 0 9995 2 39427 97.6640 253.9103 0113179 261.4301 97.4067 14.67232047145572 GOMX-1 1 39430U 13066Q 16224.33956388 .00000287 00000-0 62036-4 0 9993 2 39430 97.6672 241.0866 0151246 301.9057 56.7505 14.58644226144761 LO-74 1 39440U 13066AA 16224.16046136 .00000340 00000-0 55139-4 0 9992 2 39440 97.6692 266.4063 0080062 224.7821 134.6908 14.75204755146383 SPROUT 1 39770U 14029E 16224.26374014 .00000915 00000-0 11225-3 0 9993 2 39770 97.8728 320.8798 0007861 261.4975 98.5333 14.85514911120117 EO-80 1 40032U 14033Y 16224.28933171 .00000528 00000-0 64180-4 0 9997 2 40032 97.9217 129.1381 0010756 234.0402 125.9817 14.87640381116367 VELOX-1 1 40057U 14034E 16224.28613627 .00000434 00000-0 69631-4 0 9998 2 40057 98.1947 313.9133 0010651 338.1033 21.9729 14.76772267114019 DAURIA DX 1 1 40071U 14037C 16224.20918424 .00000196 00000-0 32876-4 0 9998 2 40071 98.3319 317.2396 0008091 337.5195 22.5670 14.80849293113093 UKUBE-1 1 40074U 14037F 16224.26364236 .00000490 00000-0 67218-4 0 9998 2 40074 98.3370 319.6678 0004364 347.1796 12.9307 14.83139937113231 HODOYOSHI-1 1 40299U 14070B 16224.30501097 .00001220 00000-0 57236-4 0 9998 2 40299 97.4281 305.4611 0015138 96.8560 303.9627 15.21461708 97819 CHUBUSAT-1 1 40300U 14070C 16224.24893019 .00001407 00000-0 68153-4 0 9999 2 40300 97.4234 303.4801 0022633 104.5088 340.5496 15.19983954 97695 QSAT-EOS 1 40301U 14070D 16224.28568101 .00003057 00000-0 13774-3 0 9996 2 40301 97.4176 302.9224 0030605 104.1540 341.7462 15.21396715 97682 FIREBIRD FU3 1 40377U 15003B 16224.36570702 .00002548 00000-0 11795-3 0 9990 2 40377 99.0905 341.6862 0142072 307.8192 51.0243 15.12903351 84121 FIREBIRD FU4 1 40378U 15003C 16224.36170142 .00002542 00000-0 11758-3 0 9998 2 40378 99.0907 341.6983 0142293 307.7757 51.0651 15.12913386 84121 GRIFEX 1 40379U 15003D 16224.36376479 .00001833 00000-0 89848-4 0 9998 2 40379 99.0919 340.6789 0146597 311.9062 46.9736 15.11069873 84067 NO-84 1 40654U 15025D 16223.38617195 .00005456 00000-0 12179-3 0 01979 2 40654 054.9985 178.9368 0202165 206.9605 152.0834 15.26715761032310 NO-83 1 40655U 15025E 16223.30931119 .00010749 00000-0 20876-3 0 02152 2 40655 054.9868 170.9743 0182765 210.5117 148.5202 15.32200789032395 DEORBITSAIL 1 40719U 15032E 16224.21607364 .00000729 00000-0 11406-3 0 9999 2 40719 98.0102 115.3481 0018134 61.8847 298.4192 14.75622263 58609 NUDT-PHONESAT 1 40900U 15049B 16224.30583461 .00004296 00000-0 21895-3 0 9996 2 40900 97.4457 231.0685 0013760 219.3426 140.6809 15.17220570 49438 XW-2D 1 40907U 15049J 16223.97293907 .00001463 00000-0 84516-4 0 9991 2 40907 97.4508 229.7324 0014306 200.4611 159.6050 15.13783829 49299 XW-2F 1 40910U 15049M 16224.25338042 .00002139 00000-0 12011-3 0 9998 2 40910 97.4538 230.2545 0015380 198.2886 161.7795 15.14302191 49233 XW-2B 1 40911U 15049N 16224.36968755 .00001451 00000-0 83883-4 0 9993 2 40911 97.4556 230.3263 0014235 199.2024 160.8673 15.13765855 49251 DCBB 1 40912U 15049P 16224.40091056 .00001968 00000-0 10491-3 0 9997 2 40912 97.4527 231.3315 0015657 193.5386 272.3980 15.16264994 49325 TW-1C 1 40926U 15051B 16224.33937589 .00007958 00000-0 21950-3 0 9994 2 40926 97.2704 260.6730 0012862 204.6153 211.1228 15.37286649 49232 TW-1A 1 40928U 15051D 16224.28011841 .00003391 00000-0 10641-3 0 9996 2 40928 97.2659 259.4642 0012580 224.5259 202.2418 15.33653416 49166 IO-86 1 40931U 15052B 16223.65914673 .00000740 00000-0 14243-4 0 9994 2 40931 6.0005 286.7967 0012573 170.1861 189.8547 14.76473507 46991 GomX-3 1 40949U 98067HA 16224.18154524 .00075815 00000-0 28995-3 0 9993 2 40949 51.6279 108.3156 0002635 112.0530 248.0754 15.86777409 48770 LQSat 1 40958U 15057A 16224.33881417 .00000086 00000-0 21295-4 0 9991 2 40958 98.0112 298.4983 0018128 342.2182 17.8393 14.72887093 45508 AO-85 1 40967U 15058D 16223.22560973 .00000053 00000-0 24724-4 0 02199 2 40967 064.7792 081.9721 0197768 188.0468 171.7458 14.75077787031240 ATHENOXAT-1 1 41168U 15077C 16224.32533624 .00002704 00000-0 12096-3 0 9997 2 41168 14.9897 270.9331 0012970 46.4885 35.4608 15.10190644 36106 ChubuSat-2 1 41338U 16012B 16223.57454460 .00000628 00000-0 43048-4 0 9997 2 41338 31.0032 284.5813 0014014 225.5545 134.3944 14.99441771 26327 ChubuSat-3 1 41339U 16012C 16224.34604850 .00000546 00000-0 36299-4 0 9993 2 41339 31.0099 279.3583 0014015 239.3399 120.5847 14.99669847 26413 Horyu-4 1 41340U 16012D 16224.16887666 .00000972 00000-0 69202-4 0 9996 2 41340 31.0051 279.7724 0014324 242.9498 116.9676 15.00111507 26414 OUFTI-1 1 41458U 16025C 16223.93916288 .00001405 00000-0 83286-4 0 9997 2 41458 098.2021 237.5581 0176082 244.7988 113.4892 15.01328599016001 e-st@r-II 1 41459U 16025D 16224.27286337 .00001229 00000-0 73606-4 0 9990 2 41459 98.2024 237.9077 0175943 243.6873 114.6189 15.01298850 16047 AAUSAT4 1 41460U 16025E 16224.39530625 .00003216 00000-0 18379-3 0 9990 2 41460 98.2026 238.0486 0173988 243.1810 115.1525 15.01607240 16069 MinXSS 1 41474U 98067HU 16224.26555278 .00038307 00000-0 47858-3 0 9991 2 41474 51.6411 141.4544 0002149 37.6265 322.4878 15.59453303 13521 CADRE 1 41475U 98067HV 16224.33978562 .00050878 00000-0 58217-3 0 9993 2 41475 51.6394 140.4422 0002878 71.2462 288.8844 15.61622355 13546 NODES 1 1 41477U 98067HX 16224.23198785 .00024308 00000-0 31874-3 0 9994 2 41477 51.6395 141.9749 0001660 26.9954 333.1125 15.58415769 13426 NODES 2 1 41478U 98067HY 16224.23383481 .00023921 00000-0 31436-3 0 9998 2 41478 51.6394 141.9862 0001583 29.5279 330.5802 15.58366522 13420 NuSat1-LUSEX 1 41557U 16033B 16224.27375328 .00002212 00000-0 89861-4 0 9990 2 41557 97.4959 297.5272 0015785 25.6830 59.7989 15.25558173 11158 NuSat2 1 41558U 16033C 16224.28068601 .00002374 00000-0 96612-4 0 9996 2 41558 97.4976 297.5391 0015232 23.1979 63.4045 15.25419939 11155 Lapan A3 1 41603U 16040E 16224.40774483 .00000490 00000-0 26613-4 0 9992 2 41603 97.5068 283.2657 0015382 74.9322 340.6410 15.19086081 7622 Swayam 1 41607U 16040J 16223.87260810 .00003197 00000-0 15501-3 0 9990 2 41607 097.5045 282.7123 0016669 081.3432 278.9690 15.19131597007464 /EX